Weather History for KBYI - June, 2013

Change the Weather History Date:

Thursday, June 13, 2013

  Actual Average Record
Temperature  
Mean Temperature 61 °F 61 °F  
Max Temperature 71 °F 75 °F 95 °F (1996)
Min Temperature 50 °F 47 °F 33 °F (1952)
Degree Days  
Heating Degree Days 4 5  
Month to date heating degree days 38 80  
Since 1 June heating degree days 38 80  
Since 1 July heating degree days 6414 6811  
Cooling Degree Days 0 1  
Month to date cooling degree days 33 13  
Year to date cooling degree days 43 19  
Since 1 June cooling degree days 33 13  
Growing Degree Days 12 (Base 50)    
Moisture  
Dew Point 40 °F    
Average Humidity 50    
Maximum Humidity 72    
Minimum Humidity 28    
Precipitation  
Precipitation 0.00 in 0.04 in 0.83 in (1955)
Month to date precipitation 0.01 0.49  
Year to date precipitation 2.19 5.68  
Sea Level Pressure  
Sea Level Pressure 29.89 in    
Wind  
Wind Speed 13 mph (West)    
Max Wind Speed 24 mph    
Max Gust Speed 29 mph    
Visibility 10 miles    
Events      
T = Trace of Precipitation, MM = Missing Value Source: NWS Daily Summary

Daily Weather History Graph

Daily Weather History Graph

Search for Another Location

Airport or City:

Trip Planner

Search our weather history database for the weather conditions in past years. The results will help you decide how hot, cold, wet, or windy it might be!

Date:

Astronomy

Jun. 13, 2013 Rise Set
Actual Time 5:56 AM MDT 9:13 PM MDT
Civil Twilight 5:22 AM MDT 9:48 PM MDT
Nautical Twilight 4:37 AM MDT 10:33 PM MDT
Astronomical Twilight 3:42 AM MDT 11:28 PM MDT
Moon 10:42 AM MDT (6/13) No Moon Set
Length of Visible Light 16h 26m
Length of Day
15h 16m
Waxing Crescent, 22% of the Moon is Illuminated
Jun 13
Waxing Crescent
Jun 16
First Quarter
Jun 23
Full
Jun 29
Last Quarter
Jul 8
New

Hourly Weather History & Observations

Time (MDT) Temp. Dew Point Humidity Pressure Visibility Wind Dir Wind Speed Gust Speed Precip Events Conditions
12:53 AM 62.1 °F 51.1 °F 67% 29.76 in 10.0 mi ENE 12.7 mph - N/A   Partly Cloudy
1:53 AM 62.1 °F 51.1 °F 67% 29.80 in 10.0 mi WSW 8.1 mph - N/A   Mostly Cloudy
2:53 AM 61.0 °F 51.1 °F 70% 29.79 in 10.0 mi West 9.2 mph - N/A   Mostly Cloudy
3:53 AM 55.9 °F 44.1 °F 64% 29.81 in 10.0 mi West 12.7 mph 21.9 mph N/A   Clear
4:53 AM 55.0 °F 39.9 °F 57% 29.84 in 10.0 mi West 8.1 mph 16.1 mph N/A   Clear
5:53 AM 53.1 °F 37.0 °F 55% 29.87 in 10.0 mi West 13.8 mph 19.6 mph N/A   Clear
6:53 AM 53.1 °F 37.9 °F 57% 29.86 in 10.0 mi West 10.4 mph - N/A   Clear
7:53 AM 54.0 °F 37.9 °F 55% 29.89 in 10.0 mi West 13.8 mph 24.2 mph N/A   Clear
8:53 AM 55.0 °F 39.0 °F 55% 29.91 in 10.0 mi West 13.8 mph 20.7 mph N/A   Clear
9:53 AM 59.0 °F 41.0 °F 51% 29.92 in 10.0 mi WSW 15.0 mph 21.9 mph N/A   Clear
10:53 AM 64.0 °F 42.1 °F 45% 29.90 in 10.0 mi West 17.3 mph 24.2 mph N/A   Clear
11:53 AM 64.9 °F 44.1 °F 47% 29.91 in 10.0 mi West 16.1 mph 23.0 mph N/A   Clear
12:53 PM 66.0 °F 41.0 °F 40% 29.90 in 10.0 mi West 13.8 mph 25.3 mph N/A   Clear
1:53 PM 69.1 °F 41.0 °F 36% 29.88 in 10.0 mi West 13.8 mph - N/A   Clear
2:53 PM 70.0 °F 39.0 °F 32% 29.88 in 10.0 mi West 11.5 mph 21.9 mph N/A   Clear
3:53 PM 70.0 °F 36.0 °F 29% 29.86 in 10.0 mi West 17.3 mph 26.5 mph N/A   Clear
4:53 PM 66.9 °F 36.0 °F 32% 29.90 in 10.0 mi West 12.7 mph 24.2 mph N/A   Scattered Clouds
5:53 PM 63.0 °F 36.0 °F 37% 29.92 in 10.0 mi West 13.8 mph - N/A   Mostly Cloudy
6:53 PM 64.0 °F 37.0 °F 37% 29.91 in 10.0 mi WNW 10.4 mph - N/A   Scattered Clouds
7:53 PM 62.1 °F 37.0 °F 39% 29.93 in 10.0 mi West 9.2 mph - N/A   Clear
8:53 PM 60.1 °F 36.0 °F 41% 29.95 in 10.0 mi West 9.2 mph - N/A   Clear
9:53 PM 57.0 °F 34.0 °F 42% 29.99 in 10.0 mi West 11.5 mph - N/A   Clear
10:53 PM 54.0 °F 36.0 °F 51% 30.02 in 10.0 mi West 16.1 mph 21.9 mph N/A   Clear
11:53 PM 51.1 °F 35.1 °F 54% 30.04 in 10.0 mi West 10.4 mph 17.3 mph N/A   Clear